Location: New Paltz
(41.7500°N, 74.0833°W)
Time: 18:43:58
(UTC-04:00)

Daily predictions for brighter satellites

Satellite Brightness Start Highest point End
(mag) Time Altitude Azimuth Time Altitude Azimuth Time Altitude Azimuth
Cosmos 1378 3.4 19:13:36 10° N 19:17:17 47° E 19:20:55 10° SSE
Geosat 4.1 19:17:09 10° SE 19:22:04 58° ENE 19:27:01 10° NNW
BREEZE M DEB (TANK) 3.8 19:11:51 10° WSW 19:22:09 54° NNW 19:25:23 10° NE
ALOS 2.2 19:19:43 10° SSE 19:24:22 73° ENE 19:29:02 10° N
ATLAS 2AS CENTAUR R/B 4.5 19:19:51 10° NNW 19:25:44 21° NNE 19:31:25 10° ENE
Cosmos 1271 Rocket 3.5 19:22:39 10° SSW 19:26:21 56° WNW 19:30:09 10° N
USA 81 4.1 19:21:52 10° N 19:27:07 60° E 19:32:19 10° SSE
Cosmos 2150 Rocket 4.1 19:22:48 10° NNW 19:28:10 88° ENE 19:33:36 10° SSE
COSMO-SKYMED 1 3.6 19:26:31 10° N 19:30:45 52° WNW 19:34:58 10° SSW
USA 229 DEB 4.4 19:24:50 10° NW 19:31:56 64° WSW 19:39:08 10° SSE
USA 229 4.4 19:24:57 10° NW 19:32:02 64° WSW 19:39:14 10° SSE
Cosmos 2181 Rocket 4.0 19:29:37 10° N 19:35:51 88° W 19:41:58 10° S
NOSS 3-1 (A) 4.2 19:28:57 10° NNW 19:36:28 63° NE 19:44:47 10° SE
Cosmos 1758 Rocket 3.9 19:32:29 10° NNW 19:36:58 71° W 19:41:26 10° S
Cosmos 841 Rocket 3.4 19:33:09 10° S 19:38:15 72° ESE 19:43:24 10° NNE
Cosmos 1340 Rocket 3.7 19:36:59 10° NNW 19:40:59 54° W 19:44:57 10° S
Cosmos 1726 Rocket 3.9 19:37:20 10° SSW 19:41:40 68° W 19:46:00 10° N
Cosmos 1937 Rocket 4.1 19:37:04 10° NNW 19:42:18 63° WSW 19:47:29 10° S
FREGAT/IRIS 2.5 19:39:40 10° SSE 19:42:40 72° ENE 19:45:42 10° N
Cosmos 389 Rocket 4.2 19:39:45 10° SSW 19:43:02 38° WNW 19:46:18 10° N
Cosmos 1805 4.4 19:40:59 10° SE 19:44:04 23° E 19:47:10 10° NE
NOSS 3-1 (C) 4.1 19:37:30 10° NW 19:45:09 86° NE 19:53:39 10° SE
Cosmos 2084 3.9 19:43:59 10° SW 19:48:00 58° NW 19:51:51 10° NNE
Cosmos 2074 Rocket 4.0 19:43:17 10° S 19:49:24 64° E 19:55:32 10° NNE
CZ-2D R/B 3.9 19:47:59 13° SE 19:50:57 33° ENE 19:54:26 10° N
Resurs 1-3 4.4 19:50:43 16° ESE 19:53:31 30° ENE 19:57:22 10° N
Cosmos 1943 Rocket 3.8 19:49:14 10° NW 19:54:17 35° WSW 19:59:20 10° S
Cosmos 540 Rocket 3.6 19:50:19 10° S 19:55:13 50° ESE 20:00:09 10° NNE
Cosmos 1763 Rocket 4.1 19:52:34 10° SSW 19:57:35 58° WNW 20:02:42 10° NNE
HJ-1C 3.2 19:56:52 10° SSE 20:00:11 76° ENE 20:03:34 10° N
Meteor 1-24 Rocket 3.8 19:54:38 10° N 20:00:37 77° E 20:06:24 10° SSE
Cosmos 2228 3.9 20:03:07 10° SSW 20:07:22 53° W 20:11:38 10° N
Cosmos 1697 Rocket 4.4 20:08:09 10° NNE 20:11:18 15° NE 20:12:25 14° ENE
SJ-6B 3.1 20:08:56 10° S 20:12:55 69° WSW 20:16:51 10° NNW
Cosmos 1953 3.2 20:17:35 29° ENE 20:17:35 29° ENE 20:20:27 10° NNE
Resurs 01 Rocket 1.6 20:14:19 21° SE 20:17:06 57° ENE 20:21:27 10° N
Nadezhda 3 Rocket 4.1 20:11:47 10° N 20:17:58 54° E 20:23:05 15° SSE
Cosmos 1356 Rocket 4.3 20:15:51 10° NNW 20:20:02 52° W 20:24:13 10° S
GP-B 3.1 20:16:06 10° N 20:20:28 54° E 20:23:34 18° SSE
Cosmos 1812 Rocket 3.5 20:16:45 10° S 20:21:08 67° E 20:25:36 10° NNE
Meteor 2-8 Rocket 4.4 20:16:01 10° N 20:22:12 83° E 20:28:17 10° S
H-2A R/B 4.0 20:21:27 10° S 20:24:57 40° W 20:28:31 10° NNW
Cosmos 2184 Rocket 4.4 20:20:55 10° SSW 20:27:11 69° W 20:33:33 10° N
Spot 2 Rocket 3.4 20:24:52 24° SSE 20:27:54 65° ENE 20:32:54 10° N
BREEZE-M DEB (TANK) 3.5 20:31:54 10° NW 20:32:50 18° NNW 20:32:50 18° NNW
USA 186 3.9 20:36:33 13° N 20:36:33 13° N 20:36:54 10° N
Meteor 2-19 Rocket 4.3 20:28:41 10° S 20:34:44 85° E 20:40:49 10° N
Cosmos 292 Rocket 3.7 20:34:21 10° S 20:39:05 58° ESE 20:43:52 10° NNE
Milstar 3 Cent rocket 3.7 20:39:35 10° SSW 20:42:11 16° S 20:42:11 16° S
YAOGAN 6 4.4 20:46:00 22° NNE 20:46:00 22° NNE 20:47:31 10° N
COSMOS 2406 3.9 20:39:56 10° SW 20:45:30 54° WNW 20:51:08 10° NNE
BREEZE-M (TANK) 4.5 20:34:57 10° WNW 20:45:47 39° WSW 20:48:01 23° S
Cosmos 783 Rocket 4.3 20:41:02 10° SSW 20:46:13 78° ESE 20:51:26 10° NNE
Okean 3 Rocket 3.8 20:43:03 10° N 20:46:57 52° NE 20:46:57 52° NE
MOS 1-B Rocket 3.9 20:43:09 18° SSE 20:47:55 88° WSW 20:53:37 10° NNW
ISS -1.9 20:45:37 10° SW 20:47:03 24° SW 20:47:03 24° SW
ERS-1 Rocket 4.4 20:52:01 23° NE 20:52:01 23° NE 20:54:44 10° N
SL-8 Rocket 4.2 20:50:55 44° E 20:50:55 44° E 20:56:33 10° NNE
Cosmos 1125 Rocket 4.2 20:48:33 10° NNW 20:53:43 54° WSW 20:57:04 21° S
Cosmos 1356 4.4 20:52:37 10° NNW 20:55:59 45° W 20:56:11 44° WSW
BREEZE-M DEB (TANK) 3.0 20:48:33 10° WSW 20:58:34 86° NNW 20:59:22 61° ENE
Cosmos 1674 3.4 20:55:16 10° N 20:58:03 48° NNW 20:58:03 48° NNW
Cosmos 2369 3.8 20:53:33 10° NNW 20:59:06 54° ENE 20:59:14 53° ENE
Envisat 3.2 20:57:59 33° S 21:00:17 68° WSW 21:05:22 10° NNW
Cosmos 1758 3.8 20:59:36 40° SW 21:00:49 59° W 21:04:47 10° N
Meteor 1-21 Rocket 4.1 20:55:10 10° N 21:00:57 88° E 21:02:33 49° S
Meteor 2-15 4.3 20:59:42 10° N 21:05:43 62° E 21:05:56 61° E
ATLAS CENTAUR R/B 4.4 20:56:55 10° NW 21:06:41 32° WSW 21:09:50 17° SSW
Cosmos 1939 Rocket 3.9 21:14:51 41° NW 21:14:51 41° NW 21:17:37 10° NNW
H-2A R/B 4.0 21:18:39 16° NNE 21:18:39 16° NNE 21:20:04 10° NNE
SJ-11-01 4.4 21:16:35 70° WNW 21:16:35 70° WNW 21:21:04 10° NNW
ATLAS 2AS CENTAUR R/B 3.0 21:10:40 10° NNW 21:18:37 59° NE 21:19:38 55° E
Cosmos 2278 3.8 21:28:03 10° NNW 21:33:05 70° NW 21:33:05 70° NW
Cosmos 2322 Rocket 4.4 21:42:54 10° N 21:44:25 14° NNE 21:44:25 14° NNE
Resurs 01 Rocket 4.4 21:51:54 10° WSW 21:53:56 13° W 21:56:03 10° WNW
Cosmos 1697 Rocket 3.7 21:50:27 10° NNW 21:54:10 42° NNW 21:54:10 42° NNW
Cosmos 1980 Rocket 3.6 21:52:06 10° NNW 21:55:07 30° N 21:55:07 30° N
FALCON 9 R/B 3.9 21:53:32 10° WSW 21:55:15 24° SW 21:55:15 24° SW
SL-16 R/B 4.4 22:19:27 10° N 22:21:08 18° N 22:21:08 18° N
CZ-3A R/B 4.3 22:32:28 10° NW 22:48:58 56° NNE 22:48:58 56° NNE
ATLAS 2AS CENTAUR R/B 4.4 23:02:21 10° NW 23:07:05 29° W 23:07:05 29° W
